カタログに戻る

GORIZONT 16

運用中通信GEO
NORAD 19397·PAYLOAD·🇷🇺 Russia

打ち上げ Aug 18, 1988 から Baikonur Cosmodrome

Loading…

TLE

最新Source: Space-Track

元期: Sep 14, 2026, 12:47 UTC

1 19397U 88071A   26257.53318873 -.00000285  00000-0  00000-0 0  9999
2 19397  11.4234 329.2429 0010864  88.7797 275.7064  0.99988646139139

AllMySatでGORIZONT 16をリアルタイム追跡

Download on the App Store